Weather History for KPEA - May, 2014

Change the Weather History Date:

Monday, May 26, 2014

  Actual Average (KOXV) Record (KOXV)
Temperature  
Mean Temperature 72 °F -  
Max Temperature 80 °F 74 °F 92 °F (1967)
Min Temperature 64 °F 54 °F 37 °F (1961)
Cooling Degree Days 7    
Growing Degree Days 22 (Base 50)    
Moisture  
Dew Point 66 °F    
Average Humidity 84    
Maximum Humidity 98    
Minimum Humidity 61    
Precipitation  
Precipitation 0.00 in - - ()
Sea Level Pressure  
Sea Level Pressure 29.98 in    
Wind  
Wind Speed 4 mph (SSW)    
Max Wind Speed 9 mph    
Max Gust Speed -    
Visibility 9 miles    
Events Rain    
Averages and records for this station are not official NWS values.
T = Trace of Precipitation, MM = Missing Value Source: NWS Daily Summary

Daily Weather History Graph

Daily Weather History Graph

Search for Another Location

Airport or City:

Trip Planner

Search our weather history database for the weather conditions in past years. The results will help you decide how hot, cold, wet, or windy it might be!

Date:

Astronomy

May. 26, 2014 Rise Set
Actual Time 5:43 AM CDT 8:34 PM CDT
Civil Twilight 5:11 AM CDT 9:06 PM CDT
Nautical Twilight 4:30 AM CDT 9:48 PM CDT
Astronomical Twilight 3:42 AM CDT 10:35 PM CDT
Moon 4:28 AM CDT (5/26) 6:36 PM CDT (5/26)
Length of Visible Light 15h 55m
Length of Day
14h 50m
Waning Crescent, 5% of the Moon is Illuminated
May 26
Waning Crescent
May 28
New
Jun 5
First Quarter
Jun 12
Full
Jun 19
Last Quarter

Hourly Weather History & Observations

Time (CDT) Temp. Heat Index Dew Point Humidity Pressure Visibility Wind Dir Wind Speed Gust Speed Precip Events Conditions
12:15 AM 65.7 °F - 64.4 °F 96% 30.01 in 10.0 mi Calm Calm - N/A   Clear
12:35 AM 65.3 °F - 63.9 °F 95% 30.01 in 7.0 mi ESE 3.5 mph - N/A   Scattered Clouds
12:55 AM 65.5 °F - 64.4 °F 96% 30.00 in 10.0 mi ESE 3.5 mph - N/A   Scattered Clouds
1:15 AM 65.7 °F - 64.4 °F 96% 30.00 in 10.0 mi Calm Calm - N/A   Scattered Clouds
1:35 AM 65.5 °F - 64.2 °F 96% 29.99 in 10.0 mi ESE 3.5 mph - N/A   Clear
1:55 AM 65.7 °F - 64.0 °F 94% 29.98 in 10.0 mi ESE 4.6 mph - N/A   Clear
2:15 AM 65.3 °F - 63.5 °F 94% 29.98 in 10.0 mi ESE 4.6 mph - N/A   Clear
2:35 AM 65.3 °F - 63.5 °F 94% 29.98 in 10.0 mi SE 4.6 mph - N/A   Clear
2:55 AM 65.3 °F - 63.7 °F 94% 29.97 in 10.0 mi SE 5.8 mph - N/A   Clear
3:15 AM 66.9 °F - 64.9 °F 93% 29.98 in 10.0 mi South 5.8 mph - N/A   Mostly Cloudy
3:35 AM 66.2 °F - 63.9 °F 92% 29.98 in 10.0 mi SSW 3.5 mph - N/A   Mostly Cloudy
3:55 AM 65.7 °F - 63.9 °F 94% 29.98 in 10.0 mi SSW 3.5 mph - N/A   Clear
4:15 AM 65.3 °F - 63.9 °F 95% 29.98 in 7.0 mi Calm Calm - N/A   Clear
4:35 AM 64.6 °F - 63.5 °F 96% 29.96 in 5.0 mi ESE 3.5 mph - N/A   Clear
4:55 AM 64.6 °F - 63.5 °F 96% 29.97 in 7.0 mi South 4.6 mph - N/A   Clear
5:15 AM 64.8 °F - 63.9 °F 97% 29.97 in 7.0 mi SSE 3.5 mph - N/A   Clear
5:35 AM 64.9 °F - 64.0 °F 97% 29.98 in 7.0 mi South 3.5 mph - N/A   Clear
5:55 AM 64.8 °F - 63.9 °F 97% 29.99 in 3.0 mi SSW 3.5 mph - N/A   Mist
6:15 AM 65.3 °F - 64.4 °F 97% 30.00 in 3.0 mi Calm Calm - N/A   Mist
6:35 AM 65.3 °F - 64.4 °F 97% 30.00 in 3.0 mi SSW 3.5 mph - N/A   Mist
6:55 AM 65.5 °F - 64.8 °F 98% 30.01 in 5.0 mi SW 4.6 mph - N/A   Scattered Clouds
7:15 AM 66.2 °F - 65.3 °F 97% 30.01 in 5.0 mi SSW 5.8 mph - N/A   Clear
7:35 AM 66.7 °F - 65.5 °F 96% 30.00 in 5.0 mi Calm Calm - N/A   Clear
7:55 AM 68.9 °F - 67.1 °F 94% 30.01 in 7.0 mi South 3.5 mph - N/A   Clear
8:15 AM 69.4 °F - 66.0 °F 89% 30.01 in 10.0 mi South 4.6 mph - N/A   Clear
8:35 AM 68.9 °F - 65.5 °F 89% 30.01 in 7.0 mi South 3.5 mph - N/A   Clear
8:55 AM 69.1 °F - 65.7 °F 89% 30.01 in 7.0 mi SSW 3.5 mph - N/A   Clear
9:15 AM 69.1 °F - 65.5 °F 88% 30.01 in 7.0 mi South 4.6 mph - N/A   Clear
9:35 AM 69.3 °F - 65.7 °F 88% 30.02 in 5.0 mi SW 5.8 mph - N/A   Scattered Clouds
9:55 AM 69.1 °F - 66.0 °F 90% 30.02 in 7.0 mi WSW 4.6 mph - N/A   Scattered Clouds
10:15 AM 68.9 °F - 65.8 °F 90% 30.03 in 7.0 mi WSW 5.8 mph - N/A   Scattered Clouds
10:35 AM 69.8 °F - 66.4 °F 89% 30.02 in 7.0 mi Calm Calm - N/A Rain Light Rain
10:55 AM 70.9 °F - 67.1 °F 88% 30.02 in 7.0 mi Calm Calm - N/A   Clear
11:15 AM 71.6 °F - 66.7 °F 85% 30.02 in 10.0 mi WSW 3.5 mph - N/A   Clear
11:35 AM 71.8 °F - 66.9 °F 85% 30.02 in 10.0 mi Calm Calm - N/A   Mostly Cloudy
11:55 AM 72.9 °F - 67.1 °F 82% 30.02 in 10.0 mi WSW 4.6 mph - N/A   Mostly Cloudy
12:15 PM 72.7 °F - 66.2 °F 80% 30.02 in 10.0 mi West 5.8 mph - N/A   Mostly Cloudy
12:35 PM 71.8 °F - 66.0 °F 82% 30.02 in 10.0 mi West 4.6 mph - N/A Rain Light Rain
12:55 PM 71.6 °F - 66.9 °F 85% 30.02 in 10.0 mi West 4.6 mph - N/A   Scattered Clouds
1:15 PM 71.6 °F - 65.8 °F 82% 30.01 in 10.0 mi West 4.6 mph - N/A   Scattered Clouds
1:35 PM 71.6 °F - 66.0 °F 82% 30.00 in 10.0 mi WNW 4.6 mph - N/A   Scattered Clouds
1:55 PM 74.7 °F - 66.2 °F 75% 30.00 in 10.0 mi West 3.5 mph - N/A   Clear
2:15 PM 75.7 °F - 67.5 °F 75% 29.98 in 10.0 mi Calm Calm - N/A   Scattered Clouds
2:35 PM 77.2 °F - 67.3 °F 71% 29.98 in 10.0 mi WSW 4.6 mph - N/A   Scattered Clouds
2:55 PM 79.3 °F - 67.3 °F 66% 29.96 in 10.0 mi SE 6.9 mph - N/A   Scattered Clouds
3:15 PM 76.5 °F - 66.7 °F 72% 29.95 in 10.0 mi SE 5.8 mph - N/A   Mostly Cloudy
3:35 PM 78.1 °F - 67.3 °F 69% 29.95 in 10.0 mi South 5.8 mph - N/A   Mostly Cloudy
3:55 PM 80.2 °F 82.6 °F 66.9 °F 64% 29.94 in 10.0 mi SSW 4.6 mph - N/A   Scattered Clouds
4:15 PM 78.8 °F - 66.2 °F 65% 29.93 in 10.0 mi SW 5.8 mph - N/A   Scattered Clouds
4:35 PM 79.7 °F - 66.0 °F 63% 29.93 in 10.0 mi SW 8.1 mph - N/A   Clear
4:55 PM 78.8 °F - 65.5 °F 64% 29.93 in 10.0 mi SW 6.9 mph - N/A   Clear
5:15 PM 78.8 °F - 65.8 °F 64% 29.93 in 10.0 mi SW 9.2 mph - N/A   Clear
5:35 PM 78.8 °F - 66.2 °F 65% 29.94 in 10.0 mi SW 8.1 mph - N/A   Clear
5:55 PM 78.6 °F - 65.8 °F 65% 29.93 in 10.0 mi WSW 8.1 mph - N/A   Scattered Clouds
6:15 PM 78.4 °F - 65.8 °F 65% 29.92 in 10.0 mi SW 6.9 mph - N/A   Clear
6:35 PM 80.4 °F 82.4 °F 66.0 °F 61% 29.93 in 10.0 mi SSW 6.9 mph - N/A   Clear
6:55 PM 77.9 °F - 65.8 °F 66% 29.94 in 10.0 mi SW 6.9 mph - N/A   Scattered Clouds
7:15 PM 77.9 °F - 66.0 °F 67% 29.94 in 10.0 mi SSW 6.9 mph - N/A   Clear
7:35 PM 77.4 °F - 65.8 °F 67% 29.94 in 10.0 mi SSW 5.8 mph - N/A   Clear
7:55 PM 76.5 °F - 66.0 °F 70% 29.94 in 10.0 mi SSW 4.6 mph - N/A   Clear
8:15 PM 75.0 °F - 66.0 °F 73% 29.93 in 10.0 mi SSW 4.6 mph - N/A   Clear
8:35 PM 73.6 °F - 65.7 °F 76% 29.93 in 10.0 mi SSW 4.6 mph - N/A   Clear
8:55 PM 72.3 °F - 65.5 °F 79% 29.93 in 10.0 mi South 4.6 mph - N/A   Clear
9:15 PM 71.6 °F - 65.8 °F 82% 29.93 in 10.0 mi South 4.6 mph - N/A   Clear
9:35 PM 71.8 °F - 66.0 °F 82% 29.94 in 10.0 mi SSW 3.5 mph - N/A   Clear
9:55 PM 71.1 °F - 65.8 °F 84% 29.94 in 10.0 mi SSW 4.6 mph - N/A   Clear
10:15 PM 71.6 °F - 66.2 °F 83% 29.95 in 10.0 mi SW 3.5 mph - N/A   Clear
10:35 PM 71.1 °F - 66.0 °F 84% 29.96 in 10.0 mi Calm Calm - N/A   Clear
10:55 PM 69.8 °F - 66.0 °F 88% 29.96 in 10.0 mi WSW 3.5 mph - N/A   Clear
11:15 PM 69.6 °F - 65.7 °F 87% 29.96 in 10.0 mi Calm Calm - N/A   Clear
11:35 PM 69.6 °F - 66.2 °F 89% 29.96 in 10.0 mi WSW 3.5 mph - N/A   Clear
11:55 PM 69.8 °F - 66.2 °F 88% 29.96 in 10.0 mi SSW 3.5 mph - N/A   Scattered Clouds